sat.trackr.live / text

‹ back to catalog

STARLINK-34526

NORAD 64481 · 2025-133K

PAYLOAD ACTIVE UNKNOWN

§ Identity

Operator
Country
US
Launch date
2025-06-23
Launch site
AFETR
Launch vehicle
Mass (kg)
RCS (m²)

Purposes: comms

External: N2YO · Heavens-Above · Gunter

§ Orbital elements

Epoch: 2026-05-25T02:53:52.188288Z

Period
94.10 min
Inclination
53.1606°
Eccentricity
0.0001382
Mean motion
15.30214142 rev/d
Perigee alt
474.2 km
Apogee alt
476.1 km
Semi-major
6,853.3 km
B*
6.3583e-4
RAAN
121.5464°
Arg perigee
78.7845°
Mean anomaly
281.3311°
Rev number
5,278

§ Raw data

STARLINK-345261 64481U 25133K   26145.12074292  .00018527  00000+0  63583-3 0  99922 64481  53.1606 121.5464 0001382  78.7845 281.3311 15.30214142 52786

JSON: /api/v1/satellites/64481 · /tle

For live sub-satellite position, see the globe view (requires WebGL).

§ Visibility from observer

Set your observer location to see the next 7 days of passes ≥ 10°. The values pass through the URL so the page stays shareable.

No JS? Fill the form by hand. The geolocation button needs JavaScript.